Track STARLINK-1088 now! 10-day predictions STARLINK-1088 is classified as:
1 44966U 20001BE 22138.18176942 -.00000291 00000-0 -66391-6 0 9991 2 44966 53.0563 73.3461 0001659 66.5870 293.5294 15.06400940130670